sat.trackr.live / text

‹ back to catalog

BEE-1000

NORAD 66650 · 2025-274A

PAYLOAD ACTIVE UNKNOWN

§ Identity

Operator
Country
SKOR
Launch date
2025-11-26
Launch site
NSC
Launch vehicle
Mass (kg)
RCS (m²)

External: N2YO · Heavens-Above · Gunter

§ Orbital elements

Epoch: 2026-09-20T05:56:25.070496Z

Period
96.43 min
Inclination
97.7482°
Eccentricity
0.0012879
Mean motion
14.93315856 rev/d
Perigee alt
578.6 km
Apogee alt
596.6 km
Semi-major
6,965.7 km
B*
1.5542e-4
RAAN
190.8920°
Arg perigee
43.9628°
Mean anomaly
316.2614°
Rev number
4,439

§ Raw data

BEE-10001 66650U 25274A   26263.24751239  .00001574  00000+0  15542-3 0  99912 66650  97.7482 190.8920 0012879  43.9628 316.2614 14.93315856 44398

JSON: /api/v1/satellites/66650 · /tle

For live sub-satellite position, see the globe view (requires WebGL).

§ Visibility from observer

Set your observer location to see the next 7 days of passes ≥ 10°. The values pass through the URL so the page stays shareable.

No JS? Fill the form by hand. The geolocation button needs JavaScript.